When you browse on this site, cookies collect data to enhance your experience and personalize the content and advertising you see.
Visit our Privacy Policy to learn more. By continuing to use the site, you agree to this use of cookies and data.
  • In Latvia
  • List of Countries
  • For 7 days
  • Water Temperature
  • Satellite Maps
  • Weather Map
  • Weather Widgets
  • user-avatar
    Login

    Hourly Weather Darwin

    Today, 15 July, Monday

    Time Temperature Precipitation Wind Pressure Humidity
    00:00 +21°C° 0 mm 7 mps 761 mmHg 37%
    01:00 +20°C° 0 mm 7 mps 761 mmHg 41%
    02:00 +18°C° 0 mm 7 mps 761 mmHg 45%
    03:00 +18°C° 0 mm 7 mps 761 mmHg 47%
    04:00 +17°C° 0 mm 7 mps 761 mmHg 49%
    05:00 +17°C° 0 mm 7 mps 761 mmHg 51%
    06:00 +17°C° 0 mm 7 mps 762 mmHg 54%
    07:00 +18°C° 0 mm 7 mps 762 mmHg 48%
    08:00 +20°C° 0 mm 7 mps 762 mmHg 42%
    09:00 +22°C° 0 mm 7 mps 762 mmHg 38%
    10:00 +24°C° 0 mm 6 mps 761 mmHg 32%
    11:00 +27°C° 0 mm 6 mps 761 mmHg 27%
    12:00 +29°C° 0 mm 5 mps 760 mmHg 22%
    13:00 +30°C° 0 mm 4 mps 759 mmHg 21%
    14:00 +32°C° 0 mm 4 mps 759 mmHg 21%
    15:00 +33°C° 0 mm 3 mps 758 mmHg 20%
    16:00 +31°C° 0 mm 3 mps 758 mmHg 22%
    17:00 +29°C° 0 mm 2 mps 758 mmHg 25%
    18:00 +27°C° 0 mm 2 mps 758 mmHg 28%
    19:00 +26°C° 0 mm 2 mps 759 mmHg 29%
    20:00 +25°C° 0 mm 3 mps 760 mmHg 29%
    21:00 +24°C° 0 mm 3 mps 761 mmHg 29%
    22:00 +22°C° 0 mm 5 mps 761 mmHg 30%
    23:00 +22°C° 0 mm 6 mps 761 mmHg 32%

    Tomorrow, 16 July, Tuesday

    Time Temperature Precipitation Wind Pressure Humidity
    00:00 +21°C° 0 mm 7 mps 761 mmHg 33%
    01:00 +21°C° 0 mm 7 mps 761 mmHg 37%
    02:00 +20°C° 0 mm 7 mps 761 mmHg 41%
    03:00 +18°C° 0 mm 7 mps 761 mmHg 45%
    04:00 +19°C° 0 mm 6 mps 761 mmHg 48%
    05:00 +17°C° 0 mm 6 mps 761 mmHg 51%
    06:00 +16°C° 0 mm 6 mps 761 mmHg 53%
    07:00 +19°C° 0 mm 6 mps 761 mmHg 47%
    08:00 +21°C° 0 mm 6 mps 762 mmHg 41%
    09:00 +23°C° 0 mm 7 mps 762 mmHg 36%
    10:00 +26°C° 0 mm 6 mps 761 mmHg 31%
    11:00 +28°C° 0 mm 5 mps 761 mmHg 26%
    12:00 +32°C° 0 mm 4 mps 760 mmHg 21%
    13:00 +33°C° 0 mm 3 mps 759 mmHg 21%
    14:00 +34°C° 0 mm 3 mps 759 mmHg 21%
    15:00 +35°C° 0 mm 2 mps 758 mmHg 21%
    16:00 +31°C° 0 mm 2 mps 758 mmHg 27%
    17:00 +29°C° 0 mm 2 mps 758 mmHg 34%
    18:00 +26°C° 0 mm 2 mps 759 mmHg 41%
    19:00 +25°C° 0 mm 2 mps 759 mmHg 46%
    20:00 +23°C° 0 mm 2 mps 760 mmHg 51%
    21:00 +21°C° 0 mm 2 mps 760 mmHg 56%
    22:00 +20°C° 0 mm 3 mps 760 mmHg 48%
    23:00 +20°C° 0 mm 4 mps 760 mmHg 41%

    Day after tomorrow, 17 July, Wednesday

    Time Temperature Precipitation Wind Pressure Humidity
    00:00 +20°C° 0 mm 5 mps 760 mmHg 33%
    01:00 +19°C° 0 mm 5 mps 760 mmHg 37%
    02:00 +19°C° 0 mm 5 mps 760 mmHg 40%
    03:00 +19°C° 0 mm 6 mps 760 mmHg 44%
    04:00 +17°C° 0 mm 6 mps 760 mmHg 46%
    05:00 +16°C° 0 mm 6 mps 760 mmHg 49%
    06:00 +16°C° 0 mm 6 mps 760 mmHg 51%
    07:00 +19°C° 0 mm 6 mps 760 mmHg 44%
    08:00 +21°C° 0 mm 6 mps 761 mmHg 38%
    09:00 +24°C° 0 mm 7 mps 761 mmHg 31%
    10:00 +27°C° 0 mm 6 mps 760 mmHg 28%
    11:00 +29°C° 0 mm 5 mps 760 mmHg 25%
    12:00 +32°C° 0 mm 4 mps 759 mmHg 21%
    13:00 +33°C° 0 mm 4 mps 759 mmHg 21%
    14:00 +34°C° 0 mm 4 mps 758 mmHg 20%
    15:00 +36°C° 0 mm 4 mps 757 mmHg 20%
    16:00 +33°C° 0 mm 3 mps 757 mmHg 29%
    17:00 +29°C° 0 mm 3 mps 758 mmHg 39%
    18:00 +26°C° 0 mm 2 mps 758 mmHg 48%
    19:00 +24°C° 0 mm 2 mps 758 mmHg 53%
    20:00 +23°C° 0 mm 2 mps 759 mmHg 58%
    21:00 +21°C° 0 mm 1 mps 759 mmHg 63%
    22:00 +21°C° 0 mm 1 mps 759 mmHg 62%
    23:00 +19°C° 0 mm 2 mps 759 mmHg 61%

    18 July, Thursday

    Time Temperature Precipitation Wind Pressure Humidity
    00:00 +19°C° 0 mm 2 mps 759 mmHg 60%
    01:00 +19°C° 0 mm 2 mps 759 mmHg 59%
    02:00 +19°C° 0 mm 3 mps 759 mmHg 59%
    03:00 +19°C° 0 mm 3 mps 759 mmHg 58%
    04:00 +18°C° 0 mm 4 mps 759 mmHg 61%
    05:00 +17°C° 0 mm 4 mps 759 mmHg 64%
    06:00 +17°C° 0 mm 4 mps 759 mmHg 67%
    07:00 +19°C° 0 mm 4 mps 760 mmHg 59%
    08:00 +21°C° 0 mm 5 mps 760 mmHg 51%
    09:00 +23°C° 0 mm 5 mps 760 mmHg 43%
    10:00 +27°C° 0 mm 5 mps 760 mmHg 36%
    11:00 +30°C° 0 mm 4 mps 759 mmHg 28%
    12:00 +33°C° 0 mm 4 mps 759 mmHg 21%
    13:00 +34°C° 0 mm 4 mps 758 mmHg 20%
    14:00 +35°C° 0 mm 5 mps 757 mmHg 19%
    15:00 +36°C° 0 mm 5 mps 757 mmHg 18%
    16:00 +33°C° 0 mm 5 mps 757 mmHg 27%
    17:00 +29°C° 0 mm 4 mps 757 mmHg 37%
    18:00 +27°C° 0 mm 4 mps 757 mmHg 46%
    19:00 +25°C° 0 mm 4 mps 758 mmHg 53%
    20:00 +23°C° 0 mm 4 mps 759 mmHg 61%
    21:00 +21°C° 0 mm 3 mps 759 mmHg 68%
    22:00 +20°C° 0 mm 3 mps 759 mmHg 72%
    23:00 +20°C° 0 mm 3 mps 759 mmHg 76%

    19 July, Friday

    Time Temperature Precipitation Wind Pressure Humidity
    00:00 +19°C° 0 mm 2 mps 759 mmHg 80%
    01:00 +19°C° 0 mm 3 mps 759 mmHg 82%
    02:00 +19°C° 0 mm 3 mps 759 mmHg 85%
    03:00 +19°C° 0 mm 3 mps 759 mmHg 87%
    04:00 +19°C° 0 mm 3 mps 759 mmHg 87%
    05:00 +18°C° 0 mm 3 mps 759 mmHg 87%
    06:00 +18°C° 0 mm 4 mps 759 mmHg 88%
    07:00 +20°C° 0 mm 4 mps 760 mmHg 76%
    08:00 +22°C° 0 mm 4 mps 760 mmHg 65%
    09:00 +25°C° 0 mm 5 mps 760 mmHg 54%
    10:00 +28°C° 0 mm 4 mps 760 mmHg 46%
    11:00 +30°C° 0 mm 4 mps 760 mmHg 37%
    12:00 +34°C° 0 mm 3 mps 760 mmHg 29%
    13:00 +35°C° 0 mm 4 mps 759 mmHg 27%
    14:00 +36°C° 0 mm 4 mps 758 mmHg 25%
    15:00 +36°C° 0 mm 5 mps 758 mmHg 23%
    16:00 +33°C° 0 mm 4 mps 758 mmHg 34%
    17:00 +29°C° 0 mm 4 mps 758 mmHg 45%
    18:00 +26°C° 0 mm 3 mps 758 mmHg 56%
    19:00 +25°C° 0 mm 3 mps 759 mmHg 64%
    20:00 +22°C° 0 mm 3 mps 759 mmHg 71%
    21:00 +21°C° 0 mm 4 mps 760 mmHg 79%
    22:00 +21°C° 0 mm 3 mps 760 mmHg 83%
    23:00 +20°C° 0 mm 3 mps 760 mmHg 87%

    20 July, Saturday

    Time Temperature Precipitation Wind Pressure Humidity
    00:00 +20°C° 0 mm 2 mps 760 mmHg 91%
    01:00 +20°C° 0 mm 2 mps 760 mmHg 93%
    02:00 +20°C° 0 mm 2 mps 759 mmHg 94%
    03:00 +20°C° 0 mm 2 mps 759 mmHg 95%
    04:00 +20°C° 0 mm 3 mps 759 mmHg 96%
    05:00 +20°C° 0 mm 3 mps 760 mmHg 96%
    06:00 +19°C° 0 mm 3 mps 760 mmHg 96%
    07:00 +21°C° 0 mm 4 mps 760 mmHg 84%
    08:00 +23°C° 0 mm 4 mps 761 mmHg 73%
    09:00 +26°C° 0 mm 5 mps 761 mmHg 61%
    10:00 +28°C° 0 mm 4 mps 760 mmHg 51%
    11:00 +32°C° 0 mm 4 mps 760 mmHg 40%
    12:00 +35°C° 0 mm 4 mps 759 mmHg 30%
    13:00 +35°C° 0 mm 4 mps 759 mmHg 29%
    14:00 +36°C° 0 mm 5 mps 758 mmHg 27%
    15:00 +38°C° 0 mm 6 mps 757 mmHg 26%
    16:00 +34°C° 0 mm 5 mps 757 mmHg 36%
    17:00 +32°C° 0 mm 5 mps 757 mmHg 45%
    18:00 +28°C° 0 mm 4 mps 758 mmHg 55%
    19:00 +26°C° 0 mm 4 mps 758 mmHg 64%
    20:00 +24°C° 0 mm 3 mps 759 mmHg 72%
    21:00 +23°C° 0 mm 2 mps 759 mmHg 81%
    22:00 +21°C° 0 mm 2 mps 759 mmHg 84%
    23:00 +21°C° 0 mm 2 mps 759 mmHg 87%
    Show more